Regional Weather Roundup
Issued by NWS

Home | Current Version | Previous Version | Graphics & Text | Print | Product List | Glossary On
Versions: 1 2 3 4 5 6 7 8 9 10 11 12 13 14 15 16 17 18 19 20 21 22 23 24 25 26 27 28 29 30 31 32 33 34 35 36 37 38 39 40 41 42 43 44 45 46 47 48 49 50
000
ASUS43 KMKX 231520
RWRWI

WISCONSIN REGIONAL WEATHER ROUNDUP
NATIONAL WEATHER SERVICE MILWAUKEE/SULLIVAN WI
1000 AM CDT MON APR 23 2018

NOTE: "FAIR" INDICATES FEW OR NO CLOUDS BELOW 12,000 FEET WITH NO
SIGNIFICANT WEATHER AND/OR OBSTRUCTIONS TO VISIBILITY.

WIZ001-002-006>008-014>016-023>028-231600-
NORTHWEST WISCONSIN

CITY           SKY/WX    TMP DP  RH WIND       PRES   REMARKS
SUPERIOR ARPT  FAIR      57  39  51 SW7       30.22F
ASHLAND        FAIR      56  31  38 SW5       30.23F
HAYWARD        FAIR      55  33  43 SW6       30.25F
SIREN          FAIR      58  30  33 SW6       30.24F
CUMBERLAND     FAIR      45  28  53 CALM      30.25F
RICE LAKE      FAIR      52  30  43 S3        30.27F
CHETEK         FAIR      53  31  42 SE3       30.25F
LADYSMITH      FAIR      54  31  41 SE6       30.27F
EAU CLAIRE     FAIR      55  27  34 S6        30.26F
MENOMONIE      FAIR      55  32  41 SE3       30.26F
NEW RICHMOND   FAIR      57  30  36 CALM      30.24F
OSCEOLA        FAIR      56  33  42 W3        30.28S
$$

WIZ003>005-009-010-017-018-231600-
NORTH CENTRAL WISCONSIN

CITY           SKY/WX    TMP DP  RH WIND       PRES   REMARKS
MANITOWISH WTR FAIR      48  27  43 S3        30.25F
ARBOR VITAE    FAIR      52  28  39 S5        30.25F
WOODRUFF       FAIR      52  28  39 S5        30.25F
RHINELANDER    FAIR      52  26  36 W7        30.27F
EAGLE RIVER    FAIR      50  23  34 S6        30.25F
LAND O LAKES   FAIR      52  24  32 SW5       30.26F
PHILLIPS       FAIR      53  26  35 S7        30.25F
TOMAHAWK       FAIR      51  24  33 S3        30.27F
MEDFORD        FAIR      49  29  46 SE5       30.27F
MERRILL          N/A     53  27  36 S3        30.28F
$$

WIZ029-030-035-036-043>047-231600-
CENTRAL WISCONSIN

CITY           SKY/WX    TMP DP  RH WIND       PRES   REMARKS
WAUSAU         FAIR      52  26  36 CALM      30.26F
MOSINEE        MOSUNNY   54  23  30 CALM      30.28F
MARSHFIELD     FAIR      51  29  42 SE3       30.26F
STEVENS POINT  FAIR      52  23  31 CALM      30.28F
WAUPACA        FAIR      53  26  34 CALM      30.29F
WAUTOMA        FAIR      51  27  39 CALM      30.28
WISC RAPIDS    FAIR      55  21  26 VRB3      30.28F
CAMP DOUGLAS   SUNNY     52  28  40 CALM      30.26
$$

WIZ011>013-019>022-031-037>040-048>050-231600-
NORTHEAST WISCONSIN

CITY           SKY/WX    TMP DP  RH WIND       PRES   REMARKS
ANTIGO         FAIR      51  29  42 S3        30.28F
SHAWANO        FAIR      50  23  35 CALM      30.29F
OCONTO         FAIR      52  27  38 CALM      30.29F
STURGEON BAY   FAIR      53  29  39 S5        30.29F
GREEN BAY      FAIR      51  31  46 W3        30.29F
MANITOWOC      FAIR      50  32  50 E3        30.29F
APPLETON       MOSUNNY   50  23  34 CALM      30.27S
CLINTONVILLE   FAIR      50  21  32 CALM      30.28F
OSHKOSH        FAIR      51  31  46 CALM      30.27F
$$

WIZ032>034-041-042-053>061-231600-
SOUTHWEST WISCONSIN

CITY           SKY/WX    TMP DP  RH WIND       PRES   REMARKS
LA CROSSE      FAIR      51  33  50 W7        30.26F
SPARTA         FAIR      57  27  32 CALM      30.27S
VIROQUA        FAIR      54  29  38 SE3       30.25S
BOSCOBEL       FAIR      53  29  39 NE5       30.25F
PRAIRIE DU CHI FAIR      56  24  29 S3        30.24F
PLATTEVILLE    FAIR      56  27  33 NE9       30.22F
$$

WIZ056-057-062-063-064-067-068-231600-
SOUTH CENTRAL WISCONSIN

CITY           SKY/WX    TMP DP  RH WIND       PRES   REMARKS
REEDSBURG      FAIR      54  29  38 SE3       30.25F
BARABOO/DELLS  FAIR      50  29  43 CALM      30.26F
LONE ROCK      FAIR      47  34  60 W3        30.26F
MINERAL POINT  FAIR      55  25  30 E8        30.23F
MADISON        PTSUNNY   55  27  34 E8        30.24F
MIDDLETON      FAIR      57  26  30 NE6       30.25F
WATERTOWN      FAIR      54  30  39 NE8       30.24F
MONROE         FAIR      52  28  40 NE9       30.22F
JANESVILLE     MOSUNNY   59  21  23 E14       30.21F
$$

WIZ051-052-058>065-066-070>072-231600-
SOUTHEAST WISCONSIN

CITY           SKY/WX    TMP DP  RH WIND       PRES   REMARKS
MILWAUKEE      PTSUNNY   51  31  46 N7        30.25F
WAUKESHA       SUNNY     54  25  32 NE9       30.26F
MILWAUKEE/TIMM SUNNY     54  19  26 E7        30.26F
RACINE         FAIR      51  32  48 NE9       30.25F
BURLINGTON     FAIR      57  28  32 E10       30.22F
KENOSHA        FAIR      54  29  38 NE15      30.22F
FOND DU LAC    FAIR      50  33  52 NW6       30.26F
SHEBOYGAN      FAIR      51  36  56 NE3       30.26F
WEST BEND      FAIR      54  28  37 E7        30.25F
JUNEAU         FAIR      54  28  36 CALM      30.27S
$$

LSZ147-162-231600-
LAKE SUPERIOR

STATION/POSITION TIME  TEMP    WIND        PRES    WAVE
                       AIR SEA DIR/SP/G            HT/PER
                 (UTC) (F)     (DEG/KT/KT) (MB)    (FT/S)
DEVILS ISLAND    1500   43     230/  8/  9 1023.9S
SAXON HARBOR     1430   57     190/  5/  9 1023.4S
$$

LMZ867-665-643>646-231600-
LAKE MICHIGAN

STATION/POSITION TIME  TEMP    WIND        PRES    WAVE
                       AIR SEA DIR/SP/G            HT/PER
                 (UTC) (F)     (DEG/KT/KT) (MB)    (FT/S)
NORTHPORT PIER   1440   39                 1025.7F
KEWAUNEE LAKESHO 1454   46      50/  3/  4 1024.8F
SHEBOYGAN LAKESH 1500   39      10/ 11/ 11 1025.3F
PORT WASHINGTON  1430   49      50/  6/  7 1025.7F
MILWAUKEE LAKESH 1500   45      30/ 12/ 13   N/A
KENOSHA   LAKESH 1500   42                 1023.4
$$

TC  - TEMPERATURE IN CELSIUS
VSB - VISIBILITY IN STATUTE MILES
WCI - WIND CHILL INDEX
HX  - HEAT INDEX





USA.gov is the U.S. government's official web portal to all federal, state and local government web resources and services.